ZHONGXING-6E

Last updated on Wed Nov 05 2025 00:02:51 GMT+0000 (Coordinated Universal Time)

1 58253U 23172A 25308.59141896 -.00000349 00000+0 00000+0 0 9994 2 58253 0.0098 228.1997 0002966 75.8814 68.4665 1.00275497 7407
UTC large
Height (km)
Speed (km/s)
/
Latitude / Longitude
Inclination (degrees)
Orbital Period (minutes)
Azimuth
Elevation
Range (km)
Doppler Factor

Next 0 passes for location: London (51.5072 / 0.1276)

Sorry there are no passes over London.